Wind_Speed
18 20 22 22 21 20 20 18 18 17 14 15 19 22 18 14 11 8 6 6 7 5 6 8 8 4 1 3 7 5 5 13 13 21 16 16 19 13 6 9 6 2 8 13 14 9 4
18 19 20 21 20 20 20 20 19 19 17 15 17 18 18 14 10 7 6 6 8 6 5 8 8 4 2 3 5 7 12 10 12 17 21 17 14 18 8 9 6 7 2 11 6 10 2
18 18 19 21 20 19 19 20 20 19 18 17 15 16 17 13 12 8 7 7 6 6 8 9 8 7 5 6 9 10 11 18 19 18 25 20 10 20 7 5 9 7 6 4 11 16 2
18 18 19 19 19 20 19 18 20 19 20 18 18 14 12 13 9 8 7 5 5 9 10 7 7 6 5 6 10 10 12 17 22 21 26 23 6 20 3 8 7 4 4 6 4 13 4
18 18 19 20 18 20 19 20 20 19 20 21 19 16 13 10 8 8 9 7 6 7 6 3 4 6 4 4 8 4 9 9 22 24 24 24 12 8 4 7 4 3 4 5 6 21 9
19 18 19 21 19 18 19 21 20 20 20 21 21 20 13 9 9 8 9 7 3 5 5 5 6 6 1 9 7 5 6 14 24 24 18 11 9 3 3 6 16 8 4 2 2 12 10
21 19 19 20 21 19 20 21 21 21 21 21 21 22 14 8 7 6 6 3 1 2 5 4 7 5 4 6 11 8 8 17 21 24 2 15 7 11 5 4 5 8 5 5 2 6 3
18 20 19 20 21 20 21 22 23 22 22 21 20 20 12 7 6 4 3 2 4 2 2 4 4 4 4 6 1 5 8 5 9 14 14 5 8 5 7 5 5 7 7 4 1 3 8
18 19 19 19 20 21 22 21 24 25 24 22 21 20 12 6 5 5 2 2 1 5 1 2 2 3 3 5 4 7 5 5 8 14 14 8 7 7 6 4 5 2 7 5 4 3 2
18 17 18 18 20 21 22 23 25 26 23 22 21 18 9 4 4 6 4 4 1 5 4 5 3 3 4 2 5 5 7 5 4 4 9 4 5 8 6 5 5 2 5 6 6 6 4
18 18 18 18 18 20 23 24 26 24 23 21 19 16 6 5 2 4 3 3 1 2 4 4 5 4 4 5 5 7 6 6 3 3 4 3 8 9 4 6 4 2 3 5 3 4 3
18 18 18 19 17 19 23 26 25 23 22 20 17 12 1 2 4 4 2 2 1 5 1 4 4 5 2 5 5 2 5 7 6 3 7 3 4 4 3 2 5 7 6 7 4 3 2
18 17 17 18 18 18 23 25 24 23 22 19 14 4 3 2 1 3 3 2 4 5 3 1 1 1 2 2 4 1 3 2 3 5 8 7 3 2 2 6 3 3 4 3 2 2 4
17 16 17 17 18 19 22 23 22 22 21 18 8 3 4 3 1 3 3 4 5 4 3 3 5 3 2 3 3 3 5 2 1 5 5 4 4 1 5 4 6 3 4 4 5 3 4
17 16 16 16 17 19 20 21 21 21 19 13 2 5 5 4 5 3 2 3 5 5 3 5 3 2 2 2 3 2 1 0 1 1 5 5 2 2 4 2 2 4 3 4 6 3 3
16 16 15 15 16 18 19 19 20 19 16 10 5 6 3 4 5 2 3 3 0 2 2 3 3 3 3 4 1 2 4 2 3 1 1 3 5 1 1 2 5 3 5 3 2 2 4
16 15 15 14 15 16 18 18 17 17 13 4 5 4 4 4 5 2 2 5 4 5 3 1 1 3 4 4 2 1 3 2 1 3 6 3 4 3 3 4 5 2 2 3 3 4 3
16 15 14 14 14 15 16 17 16 15 10 1 4 1 4 6 2 2 2 4 2 1 1 2 1 0 5 5 3 3 5 3 9 8 5 2 4 3 2 3 3 2 6 5 4 4 1
16 15 14 13 12 13 15 15 14 13 8 2 5 3 2 2 1 2 3 2 3 2 2 1 1 1 1 3 3 2 2 3 13 4 5 5 1 4 2 2 1 6 9 6 3 2 6
17 16 12 11 11 11 12 11 13 12 6 2 4 1 2 3 2 2 2 3 1 1 0 1 1 1 2 3 3 4 2 2 6 3 9 3 3 5 6 4 4 6 11 16 13 7 8
19 16 10 9 8 10 8 9 12 12 5 1 2 1 2 2 2 3 2 2 1 1 1 2 3 1 1 2 2 2 3 3 4 8 4 2 3 3 3 2 3 3 6 13 15 18 10
18 12 9 7 5 7 6 7 10 11 3 2 2 2 1 1 3 3 2 2 2 3 1 1 3 2 2 3 4 6 4 1 3 1 4 0 1 3 5 4 4 5 7 9 15 17 16
18 13 9 5 3 3 5 8 9 10 6 4 4 3 1 2 1 1 0 2 4 3 3 5 1 1 2 2 1 3 8 7 6 8 6 6 6 3 4 2 3 6 14 13 7 6 14
19 13 10 4 2 1 4 8 8 9 10 9 7 3 1 1 1 1 2 2 1 1 2 4 3 1 2 1 4 9 9 7 9 3 6 6 5 3 3 0 1 6 2 5 11 10 11
19 15 10 4 4 2 4 6 7 8 9 9 11 4 2 1 1 1 5 3 5 4 2 1 3 3 4 1 3 3 3 2 1 3 4 2 4 2 3 2 6 2 1 4 5 5 5
21 16 10 7 5 3 3 4 5 7 7 6 8 7 3 3 2 3 2 5 3 4 5 3 2 2 1 2 2 3 3 4 2 1 2 3 3 3 2 2 4 5 2 4 4 3 3
22 17 12 9 6 4 3 2 3 5 6 6 7 9 4 4 3 5 5 2 3 3 1 3 9 4 4 2 2 2 2 3 3 4 4 3 2 4 3 2 6 7 5 4 4 4 9
23 18 14 11 7 5 4 3 3 5 7 6 6 8 7 3 4 4 4 4 4 3 2 7 4 3 3 1 2 2 2 3 1 0 5 6 5 3 3 4 6 3 0 3 5 6 9
23 19 16 12 9 6 5 3 2 3 7 7 7 7 7 4 3 3 8 8 8 1 3 3 2 4 6 1 1 1 1 1 2 2 1 2 5 4 7 5 5 4 7 8 11 13 11
Wind_Direction
345 347 350 353 355 356 355 356 346 345 346 343 335 336 347 353 356 6 20 2 347 347 347 345 341 351 183 220 250 276 159 171 196 197 213 190 188 192 162 154 158 148 166 180 221 210 237
343 342 345 347 352 356 356 355 351 349 352 337 333 337 342 343 341 332 336 343 332 320 336 325 336 336 269 277 285 267 221 191 201 206 207 182 194 195 191 156 148 194 183 187 174 192 286
340 337 340 342 350 354 354 354 354 354 346 345 333 334 336 338 345 312 313 325 336 313 306 307 309 320 276 268 316 298 241 219 205 193 209 194 160 198 159 115 148 118 100 61 201 202 165
336 332 332 336 343 351 350 351 350 348 351 347 336 330 330 333 339 346 327 327 345 331 311 299 303 295 264 318 313 293 239 208 209 196 206 181 172 201 208 138 106 95 96 163 184 145 207
332 328 326 329 340 346 348 346 347 349 346 342 343 332 326 326 321 328 331 325 347 14 34 32 334 311 309 315 328 238 262 207 182 183 196 189 199 191 133 113 112 201 166 164 148 184 135
327 324 322 322 335 342 340 342 346 343 342 343 340 333 324 315 317 315 332 313 329 351 332 312 314 307 355 324 358 322 18 155 161 162 172 173 182 148 100 162 191 162 100 346 129 187 173
322 321 318 319 328 338 338 342 342 342 341 339 337 337 324 304 295 309 346 331 318 8 345 305 290 275 278 9 12 13 71 140 148 151 197 180 167 189 133 133 127 122 110 153 200 171 149
310 320 315 316 324 334 335 337 339 338 336 335 334 336 327 283 266 290 337 54 68 54 349 1 331 316 20 3 56 35 90 128 165 147 160 146 182 164 139 136 113 116 127 165 281 120 172
302 313 313 315 321 333 335 340 334 333 335 333 330 329 331 274 253 250 250 171 69 13 118 279 322 316 350 31 42 51 68 91 71 161 148 133 164 144 134 136 109 76 141 164 165 102 50
300 307 311 312 321 331 334 339 336 334 334 327 325 328 331 269 252 232 255 217 301 331 70 334 325 335 360 66 55 40 34 87 70 116 120 108 163 144 157 111 129 104 166 135 129 147 201
300 305 309 308 320 329 332 338 336 338 336 332 328 328 330 223 225 216 232 248 298 297 50 309 310 341 33 77 153 34 12 37 139 79 95 160 153 140 120 152 111 149 109 122 100 105 111
296 303 305 306 320 330 333 338 338 341 341 333 329 325 351 223 236 212 208 207 291 48 345 340 317 357 334 56 76 57 287 230 115 105 95 85 58 74 133 70 90 155 81 57 60 90 347
293 300 298 306 317 331 333 338 340 343 344 335 337 336 103 122 134 200 194 186 20 101 258 181 105 106 30 342 96 128 25 14 156 171 119 80 38 19 69 102 57 79 94 40 30 355 221
288 292 293 304 315 328 334 338 340 345 343 340 346 120 100 88 110 134 131 46 65 235 189 207 113 176 146 196 106 142 134 127 202 159 87 143 154 67 346 115 158 148 147 153 186 199 246
280 284 290 299 313 325 334 339 338 344 341 345 9 138 104 103 108 107 343 46 206 215 164 152 123 161 101 72 111 99 115 162 105 57 122 122 86 60 49 52 72 193 152 159 104 33 50
271 278 286 295 312 325 333 339 336 342 343 350 142 145 127 131 146 143 76 281 307 239 273 132 153 151 159 168 95 204 177 233 133 90 177 150 109 19 100 128 33 96 157 83 28 184 252
263 271 280 295 312 325 333 337 337 339 347 353 147 150 153 160 169 194 151 223 262 236 260 159 199 136 160 177 145 156 172 330 165 101 72 116 98 123 106 201 172 149 146 66 133 150 187
256 264 275 293 311 325 335 335 343 343 349 121 170 75 176 158 218 228 207 187 227 239 207 304 312 192 154 159 142 202 205 246 172 150 118 98 103 121 153 1 10 188 203 169 198 229 243
249 258 267 289 308 329 337 334 345 349 342 142 144 132 172 190 229 264 287 218 211 169 216 197 275 268 62 120 106 159 124 342 157 122 153 173 72 109 113 321 267 226 212 212 119 104 199
243 248 263 283 312 333 336 338 351 352 353 152 136 105 170 221 250 294 336 275 195 150 293 299 295 352 35 38 36 137 111 35 185 114 89 85 138 157 181 189 142 203 213 211 210 230 244
231 237 252 281 316 333 335 354 359 358 13 133 97 170 164 218 195 329 297 303 199 71 104 36 3 293 198 124 45 57 86 106 86 168 87 123 210 135 263 269 166 209 201 199 213 232 231
221 229 242 269 319 330 2 9 12 14 29 64 102 106 188 212 294 252 34 66 354 26 124 98 150 345 220 178 181 190 129 170 179 75 120 152 316 67 332 351 246 268 245 227 231 239 242
214 217 229 247 316 325 32 33 31 32 40 78 78 94 179 343 353 142 145 9 44 321 77 82 184 139 198 256 161 192 183 180 170 154 164 156 145 119 250 296 288 275 229 209 207 230 224
207 209 219 207 257 287 28 35 39 43 49 65 64 89 126 250 92 129 351 284 295 149 171 307 44 83 6 245 115 90 72 113 137 119 149 144 129 120 196 18 287 243 190 182 212 240 223
202 204 204 180 195 133 58 38 38 44 41 41 48 53 69 108 349 10 9 345 324 326 206 264 37 14 343 125 70 76 360 45 195 200 182 149 128 100 133 210 296 0 196 138 169 280 213
198 200 189 178 182 130 93 50 32 37 41 37 43 30 58 109 28 20 3 13 14 345 345 349 302 4 97 105 88 164 198 203 236 122 141 157 79 120 150 156 250 242 252 189 140 285 239
195 193 179 178 178 134 125 84 22 23 39 45 51 32 71 78 66 35 51 18 349 32 283 335 335 346 33 96 119 181 239 186 167 188 161 148 109 176 203 230 282 249 274 158 78 246 308
191 187 177 180 169 141 129 96 42 41 50 50 47 28 63 83 59 100 63 341 327 58 86 341 312 16 30 139 168 180 162 222 109 89 172 171 168 193 184 208 275 208 156 176 224 307 318
188 181 178 181 162 151 130 113 83 78 47 34 61 32 40 97 121 71 82 69 52 304 268 17 66 324 13 281 39 90 186 75 145 258 37 217 186 187 180 216 243 226 254 281 286 292 310
Height
1539 1536 1532 1527 1523 1519 1516 1512 1508 1505 1503 1501 1497 1493 1488 1484 1480 1478 1475 1474 1474 1472 1471 1471 1469 1468 1467 1468 1467 1467 1467 1469 1471 1475 1480 1483 1487 1492 1494 1496 1500 1503 1504 1507 1511 1512 1519
1538 1535 1531 1527 1522 1519 1515 1511 1507 1504 1502 1499 1497 1493 1489 1484 1480 1478 1476 1474 1473 1473 1472 1471 1470 1468 1468 1469 1466 1466 1467 1468 1472 1476 1479 1482 1487 1493 1493 1494 1500 1501 1506 1508 1513 1514 1517
1537 1534 1530 1526 1521 1518 1514 1510 1507 1503 1499 1496 1494 1492 1487 1483 1480 1477 1475 1473 1472 1472 1471 1471 1470 1469 1468 1466 1465 1464 1465 1467 1469 1471 1476 1482 1487 1493 1491 1496 1499 1501 1508 1510 1512 1515 1519
1535 1532 1529 1525 1521 1517 1513 1510 1506 1501 1499 1496 1492 1489 1486 1483 1480 1477 1476 1474 1472 1471 1470 1470 1470 1469 1466 1465 1463 1462 1460 1463 1466 1471 1478 1483 1488 1492 1493 1495 1499 1506 1510 1515 1512 1513 1521
1533 1530 1527 1523 1520 1517 1512 1508 1505 1501 1497 1494 1490 1487 1485 1482 1480 1478 1477 1475 1473 1471 1470 1470 1470 1469 1466 1465 1462 1458 1457 1461 1465 1471 1477 1484 1488 1492 1492 1497 1505 1504 1514 1512 1513 1511 1513
1531 1528 1525 1521 1518 1515 1511 1507 1504 1500 1497 1493 1489 1485 1482 1481 1480 1478 1475 1474 1473 1473 1471 1470 1469 1471 1467 1463 1461 1455 1457 1459 1464 1472 1479 1483 1488 1492 1493 1495 1495 1502 1511 1510 1510 1512 1513
1529 1526 1523 1520 1516 1513 1510 1506 1502 1499 1496 1491 1487 1483 1480 1480 1478 1477 1475 1474 1477 1475 1472 1471 1469 1467 1464 1463 1460 1458 1458 1461 1466 1474 1475 1483 1485 1486 1494 1494 1495 1503 1507 1512 1509 1507 1512
1526 1524 1521 1517 1514 1511 1508 1504 1500 1495 1492 1488 1484 1480 1477 1476 1475 1476 1475 1474 1474 1476 1474 1471 1469 1465 1463 1463 1463 1462 1461 1464 1467 1473 1480 1483 1486 1489 1490 1493 1497 1500 1509 1511 1508 1507 1512
1523 1521 1518 1515 1512 1509 1506 1502 1497 1493 1490 1485 1481 1477 1476 1473 1474 1474 1474 1473 1472 1472 1473 1471 1469 1467 1465 1465 1465 1464 1465 1466 1466 1474 1479 1477 1485 1487 1490 1495 1500 1504 1508 1513 1513 1510 1512
1520 1518 1516 1513 1510 1506 1503 1499 1494 1490 1485 1480 1477 1476 1473 1473 1475 1473 1474 1474 1473 1473 1483 1472 1469 1469 1467 1465 1468 1467 1466 1469 1470 1470 1475 1481 1485 1489 1491 1496 1499 1503 1502 1506 1511 1515 1525
1517 1515 1513 1511 1508 1504 1500 1497 1492 1486 1482 1477 1475 1473 1472 1471 1473 1472 1474 1474 1474 1474 1497 1473 1469 1468 1466 1465 1469 1468 1467 1468 1474 1475 1480 1486 1486 1491 1494 1495 1495 1502 1501 1505 1510 1519 1517
1514 1511 1510 1507 1505 1502 1498 1493 1489 1483 1479 1475 1472 1471 1469 1471 1471 1472 1473 1473 1476 1486 1489 1474 1470 1469 1468 1466 1471 1475 1474 1474 1475 1480 1481 1487 1487 1490 1494 1495 1496 1501 1506 1512 1520 1523 1540
1510 1508 1506 1504 1502 1500 1496 1491 1486 1482 1477 1473 1470 1469 1469 1469 1471 1472 1472 1473 1484 1484 1476 1474 1470 1472 1470 1468 1473 1476 1477 1475 1476 1479 1481 1486 1493 1495 1493 1495 1499 1500 1504 1527 1526 1536 1536
1507 1504 1503 1501 1499 1496 1493 1488 1484 1480 1475 1471 1469 1469 1469 1471 1471 1473 1474 1478 1488 1477 1472 1467 1467 1471 1471 1470 1472 1473 1478 1477 1476 1474 1481 1492 1496 1497 1497 1497 1501 1504 1505 1524 1526 1529 1528
1503 1501 1500 1498 1496 1493 1490 1486 1481 1477 1473 1470 1469 1469 1470 1471 1473 1474 1476 1490 1482 1476 1465 1467 1467 1469 1469 1470 1473 1473 1476 1474 1473 1474 1478 1497 1499 1498 1498 1499 1501 1508 1515 1513 1530 1537 1549
1500 1498 1497 1495 1493 1490 1486 1483 1479 1475 1471 1469 1469 1469 1470 1472 1472 1473 1478 1476 1474 1467 1465 1465 1469 1466 1472 1468 1473 1473 1475 1472 1472 1473 1475 1486 1500 1497 1500 1501 1504 1503 1509 1517 1525 1537 1527
1496 1495 1494 1493 1491 1487 1484 1481 1476 1472 1469 1468 1468 1470 1471 1471 1472 1472 1481 1475 1467 1465 1465 1465 1465 1465 1468 1469 1471 1472 1474 1473 1472 1475 1474 1481 1489 1503 1501 1502 1498 1506 1508 1512 1515 1525 1529
1491 1491 1491 1490 1488 1485 1481 1477 1473 1470 1468 1467 1467 1471 1470 1471 1473 1471 1474 1469 1466 1464 1465 1465 1464 1464 1467 1470 1471 1475 1475 1475 1472 1473 1479 1480 1490 1497 1497 1499 1498 1501 1499 1505 1507 1519 1528
1487 1488 1488 1487 1485 1482 1479 1475 1471 1468 1466 1465 1466 1469 1470 1470 1474 1474 1466 1463 1462 1463 1463 1464 1465 1463 1464 1465 1470 1471 1472 1471 1472 1474 1477 1480 1496 1499 1502 1504 1501 1499 1497 1500 1505 1513 1527
1482 1485 1485 1484 1482 1480 1476 1473 1469 1466 1465 1465 1466 1470 1470 1470 1470 1470 1467 1462 1461 1463 1465 1465 1464 1465 1464 1464 1468 1472 1473 1473 1472 1474 1476 1479 1490 1494 1501 1492 1494 1496 1493 1494 1498 1499 1494
1479 1481 1482 1481 1479 1477 1475 1471 1468 1465 1464 1465 1466 1468 1469 1472 1469 1470 1468 1465 1464 1465 1466 1467 1469 1468 1467 1469 1468 1469 1472 1475 1476 1476 1479 1483 1493 1496 1489 1487 1489 1490 1490 1491 1492 1487 1490
1475 1477 1479 1479 1476 1475 1473 1471 1468 1465 1464 1464 1466 1467 1469 1469 1468 1468 1466 1465 1463 1465 1464 1467 1468 1468 1468 1469 1468 1473 1472 1473 1474 1478 1482 1485 1493 1496 1500 1491 1491 1491 1490 1489 1485 1483 1485
1472 1474 1476 1476 1475 1474 1472 1471 1468 1466 1464 1463 1465 1467 1469 1469 1468 1469 1469 1468 1466 1464 1464 1464 1466 1467 1469 1467 1466 1466 1468 1468 1470 1476 1483 1487 1494 1505 1510 1499 1495 1496 1480 1480 1480 1476 1476
1469 1471 1473 1473 1473 1472 1471 1470 1469 1467 1466 1464 1464 1467 1470 1470 1470 1470 1470 1469 1466 1465 1466 1464 1464 1465 1469 1467 1468 1467 1468 1470 1472 1475 1476 1487 1492 1501 1512 1502 1511 1472 1467 1468 1472 1470 1470
1465 1467 1469 1471 1472 1471 1471 1470 1469 1468 1467 1465 1465 1466 1467 1471 1471 1471 1472 1470 1467 1466 1467 1467 1466 1467 1467 1467 1470 1472 1477 1473 1473 1473 1475 1476 1485 1498 1505 1511 1483 1465 1466 1469 1469 1465 1462
1460 1463 1465 1468 1470 1470 1470 1470 1469 1468 1468 1466 1466 1467 1468 1470 1473 1473 1473 1473 1473 1471 1468 1468 1467 1464 1466 1468 1469 1473 1475 1476 1477 1474 1475 1476 1478 1487 1497 1498 1489 1472 1463 1463 1464 1471 1458
1456 1459 1462 1466 1468 1469 1469 1469 1469 1469 1468 1467 1467 1468 1469 1470 1473 1473 1474 1477 1474 1474 1474 1472 1470 1467 1464 1468 1473 1476 1481 1474 1475 1474 1474 1476 1480 1489 1489 1493 1479 1465 1462 1461 1474 1470 1455
1452 1455 1459 1463 1465 1467 1468 1469 1469 1469 1468 1467 1468 1467 1468 1470 1472 1473 1475 1475 1474 1475 1476 1475 1473 1469 1467 1468 1468 1472 1477 1475 1474 1470 1474 1477 1481 1486 1484 1485 1487 1459 1460 1463 1460 1455 1454
1449 1453 1457 1460 1463 1465 1466 1468 1469 1468 1468 1468 1467 1468 1467 1471 1473 1474 1474 1475 1476 1476 1477 1477 1480 1479 1476 1473 1474 1476 1474 1477 1477 1475 1472 1476 1473 1475 1475 1472 1458 1457 1456 1456 1455 1453 1452